Starlink 32648

operational
NORAD ID: 62301 Int'l Des: 2024-239 Owner: SPXS Country: US Constellation: starlink
LEOCIRCULAR

About Starlink 32648

Description loading...

Live Position

Loading 3D Globe...

Upcoming Passes

Altitude History

Altitude vs Time

uPlot chart will show altitude changes over time

Two-Line Element Set

1 62301U 24239A 25260.46110208 .00027911 00000-0 70473-3 0 9993
2 62301 53.1571 267.7709 0004491 87.0563 273.0955 15.39633948 43011
Epoch: Sep 17, 2025 • Age: 22 hours

Current Status

Altitude 449.2 km
Velocity 7.65 km/s
Sub-Earth Point 45.88°N, 105.08°W
Launch Date Dec 13, 2024
Age 0.7 years
Type internet

Technical Details

Classification Payload
Mass 730.00 kg
Dry Mass 700.00 kg
Total Mass 730.00 kg
Length 0.30 m
Diameter 4.10 m
Span 29.00 m
Shape Box + pan
Manufacturer SPXS
Bus Type Starlink V2M
Phase Status In Orbit
Owner/State SPXS/US

Large Constellations

Loading constellations...